Zurück zum Katalog

COSMOS 2251 DEB

AktivLEO
NORAD 35764·DEBRIS·🇷🇺 Russia

Gestartet Jun 16, 1993 von Plesetsk Cosmodrome

Loading…

Nächste Überflüge (nächste 24 Stunden)

TLE

AlterndSource: Space-Track

Epoche: Sep 12, 2026, 10:23 UTC

1 35764U 93036ARJ 26255.43274879  .00004613  00000-0  60062-3 0  9991
2 35764  74.0229 164.6290 0025896 216.3614 143.5804 14.80690695700945

Verfolge COSMOS 2251 DEB in Echtzeit mit AllMySat

Download on the App Store